Meteo Giornale » Osservazioni meteo Italia » Treviso-S Angelo

ore: 15:50 - Osservazioni Meteo Treviso-S Angelo
Lat. 45° 39' N Lon. 12° 11' E Alt. 18 metri s.l.m.

sereno Europe/Rome

29 °C

Sereno

Temp. 24 Ore

18 °C

29 °C

Sud

14.8 Km/h

Dew point 13 °C

Umidità 37 %

Visibilità  10 Km

Il sole sorge alle ore 05:25

Il sole tramonta alle ore 20:51

Data e Ora Cielo e Fenomeni T °C DP °C Um. % Pres. hPa Vis. km Vento km/h
Oggi h: 15:50 sereno Sereno 29 13 37 1019 10 S 14.8
Oggi h: 15:20 sereno Sereno 29 13 37 1020 10 S 13
Oggi h: 14:50 sereno Sereno 29 13 37 1020 10 N 5.5
Oggi h: 14:20 sereno Sereno 28 13 39 1020 10 N 3.7
Oggi h: 13:50 sereno Sereno 28 14 42 1020 10 O/SO 9.3
Oggi h: 13:20 sereno Sereno 28 14 42 1020 10 SO 11.1
Oggi h: 12:50 sereno Sereno 27 16 50 1021 10 NE 7.4
Oggi h: 12:20 sereno Sereno 27 14 44 1021 10 N 3.7
Oggi h: 11:50 sereno Sereno 27 14 44 1021 10 N 5.5
Oggi h: 11:20 sereno Sereno 26 16 54 1021 10 N 5.5
Oggi h: 10:50 sereno Sereno 25 16 57 1021 10 N 5.5
Oggi h: 10:20 sereno Sereno 25 17 61 1021 10 N 7.4
Oggi h: 09:50 sereno Sereno 24 17 64 1021 10 E/NE 9.3
Oggi h: 09:20 sereno Sereno 24 18 69 1021 10 E/NE 9.3
Oggi h: 08:50 sereno Sereno 23 18 73 1021 10 E/NE 9.3
Oggi h: 08:20 sereno Sereno 22 18 78 1021 10 E/NE 7.4
Oggi h: 07:50 sereno Sereno 21 17 77 1021 10 N 5.5
Oggi h: 07:20 sereno Sereno 20 17 82 1021 10 N 5.5
Oggi h: 06:50 nuvoloso Nuvoloso 20 16 77 1021 10 N 5.5
Oggi h: 06:20 nuvoloso Nuvoloso 18 15 82 1021 10 N 7.4
Oggi h: 05:50 nuvoloso Nuvoloso 18 15 82 1021 10 N 5.5
Oggi h: 05:20 sereno Sereno 18 15 82 1021 10 N 5.5
Oggi h: 04:50 sereno Sereno 19 15 77 1021 10 NE 7.4
Oggi h: 04:20 sereno Sereno 19 15 77 1021 10 N 5.5
Oggi h: 03:50 nuvoloso Nuvoloso 20 15 72 1021 10 N 5.5
Oggi h: 03:20 coperto Coperto 19 15 77 1021 10 N 5.5
Oggi h: 02:50 coperto Coperto 19 15 77 1021 10 N 5.5
Oggi h: 02:20 molto_nuvoloso Molto Nuvoloso 19 15 77 1021 10 N 1.8
Oggi h: 01:50 molto_nuvoloso Molto Nuvoloso 18 15 82 1021 10 N 1.8
Oggi h: 01:20 poco_nuvoloso Poco Nuvoloso 18 15 82 1021 10 N 1.8
Oggi h: 00:50 poco_nuvoloso Poco Nuvoloso 18 15 82 1021 10 N 1.8
Oggi h: 00:20 poco_nuvoloso Poco Nuvoloso 18 14 77 1020 10 N 3.7
Ieri h: 23:50 sereno Sereno 20 14 68 1020 10 N 1.8
Ieri h: 23:20 sereno Sereno 20 14 68 1020 10 N 3.7
Ieri h: 22:50 sereno Sereno 21 14 64 1020 10 N 1.8
Ieri h: 22:20 sereno Sereno 21 14 64 1019 10 N 1.8
Ieri h: 21:50 sereno Sereno 23 13 53 1019 10 N 3.7
Ieri h: 21:20 sereno Sereno 24 13 50 1019 10 N 5.5
Ieri h: 20:50 sereno Sereno 25 13 47 1018 10 N 3.7
Ieri h: 20:20 sereno Sereno 26 13 44 1018 10 N 5.5
Ieri h: 19:50 sereno Sereno 26 13 44 1018 10 S/SE 7.4
Ieri h: 19:20 sereno Sereno 27 13 42 1018 10 S 9.3
Ieri h: 18:50 sereno Sereno 27 13 42 1018 10 S 9.3
Ieri h: 18:20 sereno Sereno 28 13 39 1018 10 S 9.3
Ieri h: 17:50 sereno Sereno 28 12 37 1018 10 S 7.4
Ieri h: 17:20 sereno Sereno 28 13 39 1018 10 S/SO 13
Ieri h: 16:50 sereno Sereno 28 13 39 1018 10 S/SO 11.1